Cooperstown, ND

2:56 PM CDT on July 26, 2017 (GMT -0500)
Cooperstown

Weather History for KS32 - March, 2014

Change the Weather History Date:

Tuesday, March 25, 2014

  Actual Average (KJMS) Record (KJMS)
Temperature  
Mean Temperature 14 °F -  
Max Temperature 24 °F 40 °F 76 °F (1907)
Min Temperature 5 °F 23 °F -13 °F (1964)
Degree Days  
Heating Degree Days 50    
Moisture  
Dew Point 2 °F    
Average Humidity 63    
Maximum Humidity 85    
Minimum Humidity 34    
Precipitation  
Precipitation 0.06 in - - ()
Sea Level Pressure  
Sea Level Pressure 30.18 in    
Wind  
Wind Speed 13 mph (NW)    
Max Wind Speed 21 mph    
Max Gust Speed 29 mph    
Visibility 10 miles    
Events      
Averages and records for this station are not official NWS values.
T = Trace of Precipitation, MM = Missing Value Source: NWS Daily Summary

Daily Weather History Graph

Daily Weather History Graph

Search for Another Location

Airport or City:

Trip Planner

Search our weather history database for the weather conditions in past years. The results will help you decide how hot, cold, wet, or windy it might be!

Date:

Astronomy

Mar. 25, 2014 Rise Set
Actual Time 7:25 AM CDT 7:52 PM CDT
Civil Twilight 6:54 AM CDT 8:23 PM CDT
Nautical Twilight 6:18 AM CDT 8:59 PM CDT
Astronomical Twilight 5:40 AM CDT 9:37 PM CDT
Moon 4:08 AM CDT (3/25) 2:04 PM CDT (3/25)
Length of Visible Light 13h 28m
Length of Day
12h 27m
Waning Crescent, 32% of the Moon is Illuminated
Mar 25
Waning Crescent
Mar 30
New
Apr 7
First Quarter
Apr 15
Full
Apr 22
Last Quarter

Hourly Weather History & Observations

Time (CDT) Temp. Windchill Dew Point Humidity Pressure Visibility Wind Dir Wind Speed Gust Speed Precip Events Conditions
12:15 AM 10.4 °F -6.0 °F 5.0 °F 79% 30.26 in 10.0 mi NNW 15.0 mph 20.7 mph N/A   Overcast
12:35 AM 10.4 °F -7.2 °F 5.0 °F 79% 30.26 in 10.0 mi NNW 17.3 mph 21.9 mph N/A   Overcast
12:55 AM 10.4 °F -7.7 °F 3.2 °F 73% 30.27 in 10.0 mi NNW 18.4 mph 23.0 mph N/A   Mostly Cloudy
1:15 AM 10.4 °F -7.7 °F 1.4 °F 67% 30.26 in 10.0 mi NNW 18.4 mph 28.8 mph N/A   Clear
1:35 AM 8.6 °F -10.0 °F 1.4 °F 73% 30.26 in 10.0 mi NNW 18.4 mph 27.6 mph N/A   Clear
1:55 AM 8.6 °F -9.5 °F 1.4 °F 73% 30.26 in 10.0 mi NNW 17.3 mph 24.2 mph N/A   Clear
2:15 AM 8.6 °F -7.7 °F 1.4 °F 73% 30.27 in 10.0 mi NW 13.8 mph - N/A   Clear
2:35 AM 8.6 °F -8.9 °F 1.4 °F 73% 30.27 in 10.0 mi NW 16.1 mph - N/A   Clear
2:55 AM 6.8 °F -7.8 °F 1.4 °F 79% 30.27 in 10.0 mi NW 10.4 mph - N/A   Clear
3:15 AM 6.8 °F -9.3 °F 1.4 °F 79% 30.28 in 10.0 mi WNW 12.7 mph - N/A   Clear
3:35 AM 6.8 °F -7.8 °F 1.4 °F 79% 30.28 in 10.0 mi WNW 10.4 mph - N/A   Clear
3:55 AM 6.8 °F -9.3 °F 1.4 °F 79% 30.28 in 10.0 mi WNW 12.7 mph - N/A   Clear
4:15 AM 6.8 °F -9.3 °F 1.4 °F 79% 30.27 in 10.0 mi NW 12.7 mph - N/A   Clear
4:35 AM 5.0 °F -10.8 °F 1.4 °F 85% 30.27 in 10.0 mi NW 11.5 mph - N/A   Clear
4:55 AM 5.0 °F -11.6 °F 1.4 °F 85% 30.27 in 10.0 mi NW 12.7 mph - N/A   Clear
5:15 AM 5.0 °F -11.6 °F 1.4 °F 85% 30.26 in 10.0 mi NW 12.7 mph - N/A   Clear
5:35 AM 5.0 °F -10.8 °F 1.4 °F 85% 30.27 in 10.0 mi NW 11.5 mph - N/A   Clear
5:55 AM 5.0 °F -12.3 °F 1.4 °F 85% 30.26 in 10.0 mi NW 13.8 mph - N/A   Clear
6:15 AM 5.0 °F -10.0 °F 1.4 °F 85% 30.26 in 10.0 mi NW 10.4 mph - N/A   Clear
6:35 AM 5.0 °F -12.3 °F 1.4 °F 85% 30.26 in 10.0 mi NW 13.8 mph - N/A   Clear
6:55 AM 5.0 °F -10.0 °F 1.4 °F 85% 30.26 in 10.0 mi NW 10.4 mph - N/A   Clear
7:15 AM 5.0 °F -10.0 °F 1.4 °F 85% 30.26 in 10.0 mi NW 10.4 mph - N/A   Clear
7:35 AM 5.0 °F -10.8 °F 1.4 °F 85% 30.27 in 10.0 mi WNW 11.5 mph - N/A   Clear
7:55 AM 5.0 °F -10.8 °F 1.4 °F 85% 30.27 in 10.0 mi WNW 11.5 mph - N/A   Clear
8:15 AM 5.0 °F -12.3 °F 1.4 °F 85% 30.27 in 10.0 mi WNW 13.8 mph - N/A   Clear
8:35 AM 6.8 °F -9.3 °F 3.2 °F 85% 30.27 in 10.0 mi WNW 12.7 mph 19.6 mph N/A   Clear
8:55 AM 8.6 °F -7.7 °F 3.2 °F 79% 30.26 in 10.0 mi NW 13.8 mph - N/A   Clear
9:15 AM 8.6 °F -8.9 °F 3.2 °F 79% 30.26 in 10.0 mi NW 16.1 mph - N/A   Clear
9:35 AM 10.4 °F -5.4 °F 3.2 °F 73% 30.26 in 10.0 mi WNW 13.8 mph - N/A   Clear
9:55 AM 10.4 °F -5.4 °F 3.2 °F 73% 30.26 in 10.0 mi NW 13.8 mph - N/A   Clear
10:15 AM 12.2 °F -3.7 °F 5.0 °F 73% 30.26 in 10.0 mi NW 15.0 mph 18.4 mph N/A   Clear
10:35 AM 14.0 °F -0.8 °F 3.2 °F 62% 30.26 in 10.0 mi WNW 13.8 mph - N/A   Clear
11:15 AM 15.8 °F 0.3 °F 3.2 °F 58% 30.25 in 2.5 mi West 16.1 mph 20.7 mph N/A   Haze
11:35 AM 17.6 °F 3.2 °F 3.2 °F 53% 30.24 in 10.0 mi NW 15.0 mph - 0.06 in   Clear
11:55 AM 17.6 °F 1.7 °F 1.4 °F 49% 30.24 in 10.0 mi WNW 18.4 mph 25.3 mph 0.06 in   Partly Cloudy
12:15 PM 17.6 °F 2.7 °F -0.4 °F 45% 30.23 in 10.0 mi NW 16.1 mph 27.6 mph N/A   Clear
12:35 PM 17.6 °F 2.2 °F -0.4 °F 45% 30.23 in 10.0 mi NW 17.3 mph 23.0 mph N/A   Clear
12:55 PM 19.4 °F 3.2 °F -0.4 °F 42% 30.22 in 10.0 mi WNW 20.7 mph 25.3 mph N/A   Clear
1:15 PM 19.4 °F 5.5 °F -0.4 °F 42% 30.21 in 10.0 mi NW 15.0 mph 23.0 mph N/A   Clear
1:35 PM 21.2 °F 7.3 °F -0.4 °F 39% 30.20 in 10.0 mi NW 16.1 mph 24.2 mph N/A   Clear
1:55 PM 21.2 °F 7.3 °F -0.4 °F 39% 30.19 in 10.0 mi NW 16.1 mph 20.7 mph N/A   Clear
2:15 PM 21.2 °F 8.9 °F -0.4 °F 39% 30.18 in 10.0 mi NW 12.7 mph 18.4 mph N/A   Clear
2:35 PM 23.0 °F 10.6 °F -0.4 °F 36% 30.17 in 10.0 mi NW 13.8 mph 19.6 mph N/A   Clear
2:55 PM 23.0 °F 10.1 °F -0.4 °F 36% 30.16 in 10.0 mi NW 15.0 mph 23.0 mph N/A   Clear
3:15 PM 23.0 °F 12.4 °F -0.4 °F 36% 30.15 in 10.0 mi West 10.4 mph 19.6 mph N/A   Clear
3:35 PM 23.0 °F 11.1 °F -0.4 °F 36% 30.14 in 10.0 mi NNW 12.7 mph 18.4 mph N/A   Clear
3:55 PM 23.0 °F 10.1 °F -0.4 °F 36% 30.14 in 10.0 mi NW 15.0 mph 19.6 mph N/A   Clear
4:15 PM 23.0 °F 13.1 °F -0.4 °F 36% 30.14 in 10.0 mi NW 9.2 mph - N/A   Clear
4:35 PM 24.8 °F 14.6 °F 1.4 °F 36% 30.13 in 10.0 mi NNW 10.4 mph - N/A   Clear
4:55 PM 24.8 °F 15.3 °F 1.4 °F 36% 30.11 in 10.0 mi WNW 9.2 mph - N/A   Clear
5:15 PM 24.8 °F 14.6 °F 1.4 °F 36% 30.11 in 10.0 mi NW 10.4 mph - N/A   Clear
5:35 PM 24.8 °F 14.6 °F -0.4 °F 34% 30.10 in 10.0 mi WNW 10.4 mph - N/A   Clear
5:55 PM 24.8 °F 14.6 °F -0.4 °F 34% 30.10 in 10.0 mi NW 10.4 mph - N/A   Clear
6:15 PM 24.8 °F 16.9 °F 1.4 °F 36% 30.09 in 10.0 mi WNW 6.9 mph - N/A   Clear
6:35 PM 23.0 °F 13.9 °F 1.4 °F 39% 30.08 in 10.0 mi NW 8.1 mph - N/A   Clear
6:55 PM 23.0 °F 15.8 °F -0.4 °F 36% 30.08 in 10.0 mi NW 5.8 mph - N/A   Clear
7:15 PM 23.0 °F 14.7 °F 1.4 °F 39% 30.07 in 10.0 mi NW 6.9 mph - N/A   Clear
7:35 PM 21.2 °F 14.9 °F 5.0 °F 50% 30.06 in 10.0 mi NW 4.6 mph - N/A   Clear
7:55 PM 19.4 °F 14.3 °F 5.0 °F 54% 30.05 in 10.0 mi NNW 3.5 mph - N/A   Clear
8:15 PM 19.4 °F - 10.4 °F 68% 30.04 in 10.0 mi Calm Calm - N/A   Clear
8:35 PM 17.6 °F 12.3 °F 8.6 °F 68% 30.04 in 10.0 mi East 3.5 mph - N/A   Clear
8:55 PM 17.6 °F 10.7 °F 8.6 °F 68% 30.03 in 10.0 mi East 4.6 mph - N/A   Clear
9:15 PM 15.8 °F 8.6 °F 8.6 °F 73% 30.03 in 10.0 mi ESE 4.6 mph - N/A   Clear
9:35 PM 15.8 °F 7.2 °F 8.6 °F 73% 30.02 in 10.0 mi ESE 5.8 mph - N/A   Clear
9:55 PM 15.8 °F 7.2 °F 6.8 °F 68% 30.01 in 10.0 mi SE 5.8 mph - N/A   Clear
10:15 PM 14.0 °F 3.9 °F 6.8 °F 73% 30.01 in 10.0 mi SE 6.9 mph - N/A   Clear
10:35 PM 14.0 °F 3.9 °F 6.8 °F 73% 30.01 in 10.0 mi SE 6.9 mph - N/A   Clear
10:55 PM 14.0 °F 3.9 °F 5.0 °F 67% 30.00 in 10.0 mi SE 6.9 mph - N/A   Clear
11:15 PM 14.0 °F 3.9 °F 5.0 °F 67% 30.00 in 10.0 mi SE 6.9 mph - N/A   Clear
11:35 PM 12.2 °F 1.7 °F 6.8 °F 79% 29.99 in 10.0 mi SE 6.9 mph - N/A   Clear
11:55 PM 12.2 °F 1.7 °F 6.8 °F 79% 29.98 in 10.0 mi SE 6.9 mph - N/A   Clear